| time (UTC) | temp C | wind direction | speed KPH | gust KPH | rain 1hr cm | rain 24hr cm | rain mn cm | humidity % | barometer mb |
| 20260505040005 | 17 | 313 | 0.0 | 1.6 | 0.00 | 0.00 | 0.00 | 69 | 999.3 |
| 20260505035505 | 17 | 327 | 0.0 | 1.6 | 0.00 | 0.00 | 0.00 | 68 | 999.2 |
| 20260505034505 | 17 | 287 | 0.0 | 1.6 | 0.00 | 0.00 | 0.00 | 67 | 999.1 |
| 20260505034005 | 17 | 301 | 0.0 | 1.6 | 0.00 | 0.00 | 0.00 | 66 | 999.1 |
| 20260505033505 | 17 | 302 | 0.0 | 0.0 | 0.00 | 0.00 | 0.00 | 67 | 999.0 |
| 20260505033005 | 17 | 302 | 0.0 | 3.2 | 0.00 | 0.00 | 0.00 | 66 | 999.0 |
| 20260505032004 | 18 | 341 | 1.6 | 3.2 | 0.00 | 0.00 | 0.00 | 65 | 998.9 |
| 20260505031505 | 18 | 186 | 1.6 | 3.2 | 0.00 | 0.00 | 0.00 | 64 | 998.9 |
| 20260505031005 | 18 | 289 | 1.6 | 4.8 | 0.00 | 0.00 | 0.00 | 64 | 998.8 |
| 20260505030505 | 18 | 250 | 1.6 | 4.8 | 0.00 | 0.00 | 0.00 | 63 | 998.8 |
| 20260505030005 | 19 | 257 | 1.6 | 8.0 | 0.00 | 0.00 | 0.00 | 63 | 998.8 |
| 20260505025505 | 19 | 239 | 1.6 | 8.0 | 0.00 | 0.00 | 0.00 | 63 | 998.7 |
| 20260505025005 | 20 | 260 | 1.6 | 4.8 | 0.00 | 0.00 | 0.00 | 62 | 998.7 |
| 20260505024505 | 20 | 238 | 1.6 | 4.8 | 0.00 | 0.00 | 0.00 | 63 | 998.6 |
| 20260505023505 | 20 | 258 | 1.6 | 4.8 | 0.00 | 0.00 | 0.00 | 61 | 998.6 |
| 20260505023005 | 20 | 280 | 0.0 | 4.8 | 0.00 | 0.00 | 0.00 | 60 | 998.5 |
| 20260505022505 | 21 | 11 | 0.0 | 3.2 | 0.00 | 0.00 | 0.00 | 59 | 998.5 |
| 20260505022005 | 21 | 352 | 1.6 | 3.2 | 0.00 | 0.00 | 0.00 | 58 | 998.5 |
| 20260505021505 | 21 | 290 | 1.6 | 9.7 | 0.00 | 0.00 | 0.00 | 56 | 998.5 |
| 20260505020504 | 21 | 295 | 3.2 | 9.7 | 0.00 | 0.00 | 0.00 | 54 | 998.4 |
| 20260505020005 | 22 | 254 | 1.6 | 8.0 | 0.00 | 0.00 | 0.00 | 54 | 998.4 |
| 20260505015504 | 22 | 308 | 1.6 | 4.8 | 0.00 | 0.00 | 0.00 | 53 | 998.4 |
| 20260505014505 | 23 | 265 | 3.2 | 4.8 | 0.00 | 0.00 | 0.00 | 52 | 998.3 |
| 20260505014005 | 23 | 250 | 3.2 | 4.8 | 0.00 | 0.00 | 0.00 | 52 | 998.3 |
| 20260505013505 | 24 | 304 | 1.6 | 9.7 | 0.00 | 0.00 | 0.00 | 52 | 998.3 |
| 20260505012504 | 25 | 310 | 3.2 | 8.0 | 0.00 | 0.00 | 0.00 | 52 | 998.3 |
| 20260505012004 | 25 | 277 | 1.6 | 9.7 | 0.00 | 0.00 | 0.00 | 53 | 998.3 |
| 20260505011005 | 25 | 293 | 1.6 | 9.7 | 0.00 | 0.00 | 0.00 | 52 | 998.3 |
| 20260505010504 | 25 | 275 | 3.2 | 4.8 | 0.00 | 0.00 | 0.00 | 54 | 998.4 |
| 20260505010005 | 26 | 234 | 3.2 | 8.0 | 0.00 | 0.00 | 0.00 | 52 | 998.3 |
| 20260505005005 | 26 | 234 | 3.2 | 8.0 | 0.00 | 0.00 | 0.00 | 51 | 998.3 |
| 20260505003504 | 27 | 284 | 1.6 | 8.0 | 0.00 | 0.00 | 0.00 | 47 | 998.2 |
| 20260505003005 | 27 | 317 | 3.2 | 4.8 | 0.00 | 0.00 | 0.00 | 48 | 998.3 |
| 20260505002504 | 27 | 259 | 3.2 | 9.7 | 0.00 | 0.00 | 0.00 | 47 | 998.3 |
| 20260505002004 | 27 | 261 | 3.2 | 4.8 | 0.00 | 0.00 | 0.00 | 46 | 998.3 |
| 20260505001504 | 27 | 272 | 3.2 | 4.8 | 0.00 | 0.00 | 0.00 | 45 | 998.3 |
| 20260505001005 | 27 | 245 | 3.2 | 4.8 | 0.00 | 0.00 | 0.00 | 45 | 998.4 |
| 20260505000504 | 28 | 307 | 1.6 | 4.8 | 0.00 | 0.00 | 0.00 | 45 | 998.4 |
| 20260505000004 | 28 | 273 | 3.2 | 8.0 | 0.00 | 0.00 | 0.00 | 43 | 998.4 |
| 20260504235504 | 28 | 292 | 1.6 | 4.8 | 0.00 | 0.00 | 0.00 | 44 | 998.4 |
| 20260504235004 | 28 | 293 | 1.6 | 4.8 | 0.00 | 0.00 | 0.00 | 43 | 998.4 |
| 20260504234504 | 28 | 249 | 1.6 | 4.8 | 0.00 | 0.00 | 0.00 | 43 | 998.5 |
| 20260504234004 | 28 | 315 | 1.6 | 4.8 | 0.00 | 0.00 | 0.00 | 44 | 998.5 |
| 20260504233504 | 28 | 292 | 3.2 | 8.0 | 0.00 | 0.00 | 0.00 | 44 | 998.5 |
| 20260504232004 | 27 | 268 | 3.2 | 4.8 | 0.00 | 0.00 | 0.00 | 43 | 998.5 |
| 20260504231504 | 27 | 284 | 3.2 | 8.0 | 0.00 | 0.00 | 0.00 | 43 | 998.5 |
| 20260504231004 | 27 | 254 | 1.6 | 8.0 | 0.00 | 0.00 | 0.00 | 43 | 998.5 |
| 20260504230504 | 27 | 257 | 3.2 | 4.8 | 0.00 | 0.00 | 0.00 | 44 | 998.6 |
| 20260504230004 | 27 | 283 | 1.6 | 4.8 | 0.00 | 0.00 | 0.00 | 44 | 998.6 |
| 20260504225504 | 28 | 264 | 4.8 | 9.7 | 0.00 | 0.00 | 0.00 | 44 | 998.6 |
| 20260504225004 | 27 | 281 | 3.2 | 4.8 | 0.00 | 0.00 | 0.00 | 44 | 998.6 |
| 20260504224004 | 28 | 305 | 3.2 | 8.0 | 0.00 | 0.00 | 0.00 | 44 | 998.8 |
| 20260504223504 | 28 | 343 | 1.6 | 4.8 | 0.00 | 0.00 | 0.00 | 44 | 998.8 |
| 20260504223004 | 27 | 279 | 1.6 | 11.3 | 0.00 | 0.00 | 0.00 | 44 | 998.8 |
| 20260504222504 | 27 | 101 | 1.6 | 3.2 | 0.00 | 0.00 | 0.00 | 45 | 998.8 |
| 20260504222004 | 26 | 353 | 4.8 | 11.3 | 0.00 | 0.00 | 0.00 | 45 | 998.8 |
| 20260504221004 | 26 | 15 | 1.6 | 4.8 | 0.00 | 0.00 | 0.00 | 45 | 998.9 |
| 20260504220503 | 27 | 239 | 3.2 | 9.7 | 0.00 | 0.00 | 0.00 | 45 | 998.9 |
| 20260504220004 | 27 | 279 | 3.2 | 8.0 | 0.00 | 0.00 | 0.00 | 44 | 999.0 |
| 20260504215504 | 27 | 271 | 1.6 | 8.0 | 0.00 | 0.00 | 0.00 | 43 | 999.0 |
| 20260504215004 | 26 | 299 | 3.2 | 9.7 | 0.00 | 0.00 | 0.00 | 44 | 999.1 |
| 20260504214504 | 27 | 284 | 3.2 | 9.7 | 0.00 | 0.00 | 0.00 | 45 | 999.2 |
| 20260504213504 | 27 | 261 | 3.2 | 8.0 | 0.00 | 0.00 | 0.00 | 44 | 999.2 |
| 20260504212506 | 27 | 259 | 3.2 | 9.7 | 0.00 | 0.00 | 0.00 | 45 | 999.3 |
| 20260504212005 | 26 | 327 | 1.6 | 8.0 | 0.00 | 0.00 | 0.00 | 45 | 999.4 |
| 20260504210005 | 26 | 1 | 3.2 | 9.7 | 0.00 | 0.00 | 0.00 | 46 | 999.4 |
| 20260504205005 | 26 | 256 | 1.6 | 4.8 | 0.00 | 0.00 | 0.00 | 46 | 999.4 |
| 20260504204005 | 27 | 292 | 3.2 | 11.3 | 0.00 | 0.00 | 0.00 | 46 | 999.5 |
| 20260504203505 | 27 | 296 | 3.2 | 4.8 | 0.00 | 0.00 | 0.00 | 46 | 999.5 |
| 20260504203005 | 27 | 295 | 1.6 | 8.0 | 0.00 | 0.00 | 0.00 | 48 | 999.5 |
| 20260504202505 | 27 | 298 | 1.6 | 4.8 | 0.00 | 0.00 | 0.00 | 48 | 999.5 |
| 20260504202005 | 26 | 275 | 1.6 | 8.0 | 0.00 | 0.00 | 0.00 | 49 | 999.6 |
| 20260504201505 | 26 | 294 | 1.6 | 4.8 | 0.00 | 0.00 | 0.00 | 51 | 999.6 |
| 20260504201005 | 26 | 285 | 3.2 | 9.7 | 0.00 | 0.00 | 0.00 | 51 | 999.5 |
| 20260504200505 | 26 | 261 | 3.2 | 4.8 | 0.00 | 0.00 | 0.00 | 49 | 999.5 |
| 20260504200005 | 26 | 261 | 1.6 | 8.0 | 0.00 | 0.00 | 0.00 | 50 | 999.5 |
| 20260504195005 | 26 | 244 | 1.6 | 8.0 | 0.00 | 0.00 | 0.00 | 51 | 999.6 |
| 20260504194505 | 25 | 268 | 3.2 | 8.0 | 0.00 | 0.00 | 0.00 | 52 | 999.6 |
| 20260504194005 | 26 | 297 | 3.2 | 8.0 | 0.00 | 0.00 | 0.00 | 51 | 999.6 |
| 20260504193005 | 25 | 317 | 1.6 | 4.8 | 0.00 | 0.00 | 0.00 | 52 | 999.6 |
| 20260504192505 | 25 | 257 | 1.6 | 4.8 | 0.00 | 0.00 | 0.00 | 54 | 999.6 |
| 20260504191506 | 25 | 261 | 1.6 | 4.8 | 0.00 | 0.00 | 0.00 | 54 | 999.5 |
| 20260504191005 | 25 | 255 | 4.8 | 8.0 | 0.00 | 0.00 | 0.00 | 53 | 999.5 |
| 20260504190506 | 25 | 289 | 1.6 | 4.8 | 0.00 | 0.00 | 0.00 | 54 | 999.6 |
| 20260504190005 | 25 | 241 | 1.6 | 4.8 | 0.00 | 0.00 | 0.00 | 53 | 999.6 |
| 20260504185505 | 23 | 260 | 1.6 | 8.0 | 0.00 | 0.00 | 0.00 | 54 | 999.6 |
| 20260504185005 | 23 | 230 | 1.6 | 9.7 | 0.00 | 0.00 | 0.00 | 55 | 999.7 |
| 20260504183505 | 24 | 267 | 3.2 | 8.0 | 0.00 | 0.00 | 0.00 | 54 | 999.7 |
| 20260504183006 | 24 | 238 | 3.2 | 9.7 | 0.00 | 0.00 | 0.00 | 53 | 999.7 |
| 20260504182505 | 24 | 270 | 3.2 | 4.8 | 0.00 | 0.00 | 0.00 | 53 | 999.7 |
| 20260504182005 | 23 | 290 | 3.2 | 8.0 | 0.00 | 0.00 | 0.00 | 53 | 999.8 |
| 20260504181505 | 23 | 259 | 1.6 | 8.0 | 0.00 | 0.00 | 0.00 | 53 | 999.8 |
| 20260504181005 | 23 | 288 | 1.6 | 8.0 | 0.00 | 0.00 | 0.00 | 54 | 999.7 |
| 20260504180505 | 23 | 208 | 1.6 | 4.8 | 0.00 | 0.00 | 0.00 | 53 | 999.8 |
| 20260504175505 | 22 | 291 | 1.6 | 4.8 | 0.00 | 0.00 | 0.00 | 55 | 999.8 |
| 20260504175005 | 21 | 252 | 1.6 | 4.8 | 0.00 | 0.00 | 0.00 | 57 | 999.8 |
| 20260504174505 | 22 | 42 | 1.6 | 4.8 | 0.00 | 0.00 | 0.00 | 56 | 999.8 |
| 20260504173505 | 21 | 281 | 0.0 | 4.8 | 0.00 | 0.00 | 0.00 | 58 | 999.7 |
| 20260504172004 | 20 | 342 | 1.6 | 3.2 | 0.00 | 0.00 | 0.00 | 60 | 999.7 |
| 20260504171005 | 20 | 45 | 0.0 | 3.2 | 0.00 | 0.00 | 0.00 | 63 | 999.8 |
| 20260504170505 | 19 | 228 | 1.6 | 4.8 | 0.00 | 0.00 | 0.00 | 62 | 999.8 |
| 20260504151004 | 13 | 258 | 0.0 | 1.6 | 0.00 | 0.00 | 0.00 | 85 | 999.6 |
| 20260504150504 | 13 | 232 | 0.0 | 0.0 | 0.00 | 0.00 | 0.00 | 85 | 999.5 |
| 20260504141004 | 11 | 235 | 0.0 | 0.0 | 0.00 | 0.00 | 0.00 | 87 | 999.0 |
| 20260504140504 | 11 | 235 | 0.0 | 0.0 | 0.00 | 0.00 | 0.00 | 88 | 998.9 |
| 20260504130504 | 11 | 259 | 0.0 | 1.6 | 0.00 | 0.00 | 0.00 | 89 | 998.5 |
| 20260504110505 | 12 | 72 | 0.0 | 1.6 | 0.00 | 0.00 | 0.00 | 87 | 998.6 |
| 20260504100505 | 12 | 264 | 0.0 | 1.6 | 0.00 | 0.00 | 0.00 | 87 | 998.7 |
| 20260504082005 | 12 | 293 | 0.0 | 1.6 | 0.00 | 0.00 | 0.00 | 79 | 998.6 |
| 20260504081505 | 12 | 326 | 0.0 | 1.6 | 0.00 | 0.00 | 0.00 | 78 | 998.6 |
| 20260504081005 | 12 | 272 | 0.0 | 1.6 | 0.00 | 0.00 | 0.00 | 79 | 998.6 |
| 20260504050504 | 16 | 330 | 0.0 | 3.2 | 0.00 | 0.00 | 0.00 | 56 | 998.5 |
| 20260504050004 | 16 | 298 | 0.0 | 3.2 | 0.00 | 0.00 | 0.00 | 58 | 998.6 |
| 20260504045504 | 16 | 295 | 0.0 | 3.2 | 0.00 | 0.00 | 0.00 | 56 | 998.6 |
| 20260504044504 | 16 | 331 | 1.6 | 3.2 | 0.00 | 0.00 | 0.00 | 57 | 998.5 |
| 20260504043504 | 16 | 272 | 0.0 | 3.2 | 0.00 | 0.00 | 0.00 | 59 | 998.5 |
| 20260504043004 | 16 | 296 | 0.0 | 3.2 | 0.00 | 0.00 | 0.00 | 60 | 998.5 |
| 20260504042004 | 17 | 268 | 0.0 | 3.2 | 0.00 | 0.00 | 0.00 | 60 | 998.4 |
| 20260504041504 | 17 | 286 | 0.0 | 0.0 | 0.00 | 0.00 | 0.00 | 59 | 998.5 |
| 20260504040503 | 17 | 263 | 0.0 | 0.0 | 0.00 | 0.00 | 0.00 | 56 | 998.4 |